Regional Weather Roundup
Issued by NWS Midland/Odessa, TX

Skip options and go directly to product.
Home | Oldest Version | Next Version | Current Version | All | Text Only | Save Text | Print | Product List | Glossary On

Skip product version selection by date and time.   
747
ASUS44 KMAF 260210
RWRMAF
MIDLAND AREA WEATHER ROUNDUP
NATIONAL WEATHER SERVICE MIDLAND TX
900 PM CDT THU AUG 25 2016

...IN SOUTHWEST TEXAS AND SOUTHEAST NEW MEXICO...

CITY           SKY/WX    TMP DP  RH WIND       PRES   REMARKS
ALPINE         MOCLDY    69  59  71 NE6       30.23R
ANDREWS        NOT AVBL
ARTESIA        PTCLDY    72  63  73 SE6       30.08R
BIG SPRING     MOCLDY    78  64  62 W10       30.09R
CARLSBAD       PTCLDY    69  62  78 SE7       30.05R
DRYDEN           N/A     83  63  50 E9        30.02R
FORT STOCKTON  LGT RAIN  67  64  90 SW10      30.10R
GUAD PASS      CLOUDY    67  53  61 S3        30.21S
HOBBS          LGT RAIN  64  64 100 W6        30.19R
MARFA          CLOUDY   N/A N/A N/A N8        30.19R
MIDLAND AIRPK  CLOUDY    72  62  70 N8G18     30.09R
MIDLAND INTL   CLOUDY    72  61  68 N16       30.08R
ODESSA         MOCLDY    69  62  78 N8        30.10R
PECOS          CLOUDY    72  67  85 SE5       30.06R
PRESIDIO       NOT AVBL
SEMINOLE       LGT RAIN  65  61  87 NW5       30.15R
SNYDER           N/A     82  58  43 CALM      30.05R
WINK           CLOUDY    71  62  73 MISG      30.07R
$$
...OTHER STATIONS IN TEXAS...

CITY           SKY/WX    TMP DP  RH WIND       PRES   REMARKS
ABILENE        CLOUDY    80  63  55 SE7       30.03R
AMARILLO       RAIN      63  59  87 E6        30.17R
AUSTIN         MOCLDY    81  73  76 E5        29.99R
BROWNSVILLE    CLEAR     84  76  76 E12       29.96R
CORPUS CHRISTI PTCLDY    85  76  74 SE13      29.96R
DALLAS FTW     MOCLDY    87  70  56 SE12      30.00R
DEL RIO        CLEAR     84  63  49 E8        29.95R
EL PASO        MOCLDY    76  55  48 E15G26    30.07R
HOUSTON INT    MOCLDY    78  75  90 NE12      30.01R
LUBBOCK        TSTM      72  62  71 W16       30.14R
SAN ANGELO     PTCLDY    82  59  45 SE5       30.01R
SAN ANTONIO    PTCLDY    81  73  76 SE7       29.99R
WACO           CLOUDY    83  74  74 E7        30.00R
WICHITA FALLS  NOT AVBL
$$
...OTHER LOCATIONS IN NEW MEXICO...

CITY           SKY/WX    TMP DP  RH WIND       PRES   REMARKS
ALAMAGORDO     MOCLDY    77  46  33 S12       30.07R
ALBUQUERQUE    PTCLDY    77  42  28 SE7       30.12S
CANNON AFB     CLOUDY    68  60  76 SE17G25   30.15R
CLOVIS         CLOUDY    64  54  68 SE13      30.17R
HOLLOMAN AFB   NOT AVBL
ROSWELL        PTCLDY    72  58  61 SW8       30.07R
RUIDOSO          N/A     61  48  63 NE3       30.27R
SANTA FE       CLOUDY    69  44  40 SE13      30.19S
TRUTH OR CONSE CLEAR     82  41  23 SW7       30.08R
TUCUMCARI      CLOUDY    70  58  65 SE6       30.12R
$$

USA.gov is the U.S. government's official web portal to all federal, state and local government web resources and services.